Location: Park Creek Village Mobile Home Park
(38.2885°N, 122.4714°W)
Time: 05:40:11
(UTC+00:00)

Cosmos 1741 Rocket - Pass Details

Date: 14 December 2019
Orbit: 762 x 782 km, 74.0° (Epoch: 17 January)

Event Time Altitude Azimuth Distance (km) Brightness Sun altitude
Exits shadow 13:58:27 20° 315° (NW) 1,707 5.3 -15.3°
Maximum altitude 14:01:30 39° 259° (WSW) 1,141 4.5 -14.7°
Drops below altitude 10° 14:06:18 10° 191° (S) 2,295 6.6 -13.8°
Sets 14:08:48 0° 184° (S) 3,219 7.4 -13.3°
